Hourly Weather Roundup
Issued by NWS Central Illinois

Home | Current Version | Previous Version | Graphics & Text | Print | Product List | Glossary On
Versions: 1 2 3 4 5 6 7 8 9 10 11 12 13 14 15 16 17 18 19 20 21 22 23 24 25 26 27 28 29 30 31 32 33 34 35 36 37 38 39 40 41 42 43 44 45 46 47 48 49 50
000
NZUS43 KILX 020210
HWRILX

AREA WEATHER ROUNDUP
NATIONAL WEATHER SERVICE, LINCOLN IL
800 PM CST SUN MAR 01 2015


CITY           SKY/WX    TMP DP  RH WIND       PRES   REMARKS
BLOOMINGTON    MOCLDY    22  17  81 W9        30.37R WCI  12
CHAMPAIGN      MOCLDY    17  14  88 W10       30.36R WCI   5
DECATUR        MOCLDY    24  19  81 W9        30.38R WCI  14
FLORA          CLOUDY    28  24  86 NW8       30.40R WCI  20
GALESBURG      PTCLDY    20  16  83 W6        30.38S WCI  13
JACKSONVILLE   MOCLDY    21  16  82 W6        30.41R WCI  13
LACON          PTCLDY    20  14  76 W5        30.38R WCI  14
LAWRENCEVILLE  CLOUDY    31  26  82 NW9       30.38R WCI  23
LITCHFIELD     MOCLDY    25  21  83 NW5       30.40R WCI  20
$$


CITY           SKY/WX    TMP DP  RH WIND       PRES   REMARKS
LINCOLN        MOCLDY    23  17  77 NW5       30.42R WCI  17
MACOMB         MOCLDY    17  14  87 SW5       30.43R WCI  10
MATTOON        MOCLDY    24  19  81 NW9       30.37R WCI  14
MT CARMEL AP   CLOUDY    32  30  93 NW8       30.38R WCI  25
OLNEY-NOBLE AP MOCLDY    28  27  93 NW8       30.40R WCI  20
PARIS          PTCLDY    22  20  93 W5        30.37R WCI  15
PEORIA         PTCLDY    21  14  74 W6        30.39R WCI  13
PONTIAC        PTCLDY    15  12  88 W8        30.37R WCI   4
RANTOUL        MOCLDY    21  18  88 W7        30.35S WCI  12
ROBINSON       CLOUDY    28  25  88 NW6       30.40R WCI  22
SPRINGFIELD    MOCLDY    24  17  74 NW7       30.41R WCI  16
TAYLORVILLE    MOCLDY    23  19  86 W3        30.40R
$$

...REGIONAL REPORTS...


CITY           SKY/WX    TMP DP  RH WIND       PRES   REMARKS
CHICAGO O`HARE CLEAR     20  13  74 W8        30.28S WCI  10
KANKAKEE       PTCLDY    12  10  92 W6        30.35R WCI   2
MOLINE         PTCLDY    24  14  65 W10       30.39R WCI  14
MOUNT VERNON   MOCLDY    28  23  80 CALM      30.41R
PITTSFIELD     MOCLDY    24  19  79 CALM      30.43R
QUINCY         MOCLDY    24  17  74 W3        30.41R
ROCKFORD       CLEAR     21  13  71 W8        30.32R WCI  11
$$


CITY           SKY/WX    TMP DP  RH WIND       PRES   REMARKS
BURLINGTON     PTCLDY    22  17  81 W3        30.40R
CEDAR RAPIDS   CLEAR     15  10  80 W9        30.37R WCI   3
DES MOINES     PTCLDY    28  14  55 CALM      30.40S
KIRKSVILLE     CLOUDY    25  19  78 SW5       30.41R WCI  19
OTTUMWA        CLEAR     21  15  78 NW8       30.42R WCI  11
ST LOUIS       MOCLDY    28  21  75 W7        30.42R WCI  21
$$


CITY           SKY/WX    TMP DP  RH WIND       PRES   REMARKS
TERRE HAUTE    PTCLDY    25  21  85 NW8       30.36R WCI  16
EVANSVILLE     CLOUDY    33  28  81 NW8       30.37R WCI  26
INDIANAPOLIS   MOCLDY    26  22  84 NW9       30.30S WCI  17
LAFAYETTE      PTCLDY    18  16  92 W7        30.34S WCI   9
MADISON        CLEAR     22   8  55 W10G18    30.27R WCI  11
MILWAUKEE      CLEAR     23  13  65 SW10      30.23R WCI  12
$$





USA.gov is the U.S. government's official web portal to all federal, state and local government web resources and services.